Voltar ao catálogo

COSMOS 1700 DEB

AtivoGEO
NORAD 40924·DEBRIS·🇷🇺 Russia

Lançado Oct 25, 1985 de Baikonur Cosmodrome

Loading…

TLE

AtualizadoSource: Space-Track

Época: Sep 13, 2026, 19:12 UTC

1 40924U 85102G   26256.80066150  .00000092  00000-0  00000-0 0  9993
2 40924   9.5487 318.2651 0023404 142.7763 228.7678  1.00287007 68327

Acompanhe COSMOS 1700 DEB em tempo real com AllMySat

Download on the App Store